KA5J Weather Reports


Display with metric or nautical units.
time (UTC)temp
F
wind
direction
speed
MPH
gust
MPH
rain 1hr
in
rain 24hr
in
rain mn
in
humidity
%
barometer
mb
20260906193530 105 311 1.0 4.0 0.00 0.00 0.00 30 1012.1
20260906193057 106 188 0.0 4.0 0.00 0.00 0.00 32 1012.1
20260906192531 105 244 0.0 3.0 0.00 0.00 0.00 31 1012.1
20260906192029 105 352 0.0 4.0 0.00 0.00 0.00 34 1012.3
20260906191556 104 0 1.0 4.0 0.00 0.00 0.00 33 1012.4
20260906191030 103 213 0.0 5.0 0.00 0.00 0.00 36 1012.4
20260906190534 103 87 2.0 5.0 0.00 0.00 0.00 33 1012.5
20260906190052 104 61 0.0 4.0 0.00 0.00 0.00 33 1012.5
20260906185528 104 0 1.0 4.0 0.00 0.00 0.00 34 1012.6
20260906185029 104 64 0.0 3.0 0.00 0.00 0.00 34 1012.7
20260906184555 104 86 0.0 3.0 0.00 0.00 0.00 33 1012.8
20260906184029 105 63 0.0 3.0 0.00 0.00 0.00 33 1012.7
20260906183528 105 0 0.0 3.0 0.00 0.00 0.00 34 1012.9
20260906183048 105 0 0.0 2.0 0.00 0.00 0.00 32 1013.0
20260906182531 105 0 0.0 2.0 0.00 0.00 0.00 33 1013.1
20260906182031 105 133 0.0 1.0 0.00 0.00 0.00 32 1013.1
20260906181555 105 330 0.0 2.0 0.00 0.00 0.00 34 1013.3
20260906181031 104 0 0.0 2.0 0.00 0.00 0.00 33 1013.3
20260906180531 104 199 0.0 3.0 0.00 0.00 0.00 34 1013.4
20260906180104 104 224 0.0 3.0 0.00 0.00 0.00 34 1013.5
20260906175528 103 208 1.0 3.0 0.00 0.00 0.00 35 1013.6
20260906175028 103 0 0.0 2.0 0.00 0.00 0.00 36 1013.7
20260906174556 103 0 0.0 2.0 0.00 0.00 0.00 37 1013.7
20260906174030 102 0 0.0 3.0 0.00 0.00 0.00 36 1013.9
20260906173532 102 220 0.0 3.0 0.00 0.00 0.00 36 1014.0
20260906173101 102 0 0.0 3.0 0.00 0.00 0.00 36 1014.0
20260906172530 102 0 0.0 3.0 0.00 0.00 0.00 37 1014.1
20260906172031 101 160 0.0 2.0 0.00 0.00 0.00 37 1014.2
20260906171557 101 327 0.0 1.0 0.00 0.00 0.00 37 1014.4
20260906171031 101 0 0.0 1.0 0.00 0.00 0.00 38 1014.4
20260906170532 100 0 0.0 1.0 0.00 0.00 0.00 38 1014.4
20260906170059 100 66 0.0 2.0 0.00 0.00 0.00 39 1014.5
20260906165531 100 236 0.0 2.0 0.00 0.00 0.00 41 1014.6
20260906165030 100 326 0.0 1.0 0.00 0.00 0.00 39 1014.6
20260906164550 99 0 0.0 2.0 0.00 0.00 0.00 40 1014.7
20260906164031 99 0 0.0 2.0 0.00 0.00 0.00 44 1014.8
20260906163530 98 0 0.0 2.0 0.00 0.00 0.00 43 1014.9
20260906163107 97 315 0.0 2.0 0.00 0.00 0.00 45 1014.9
20260906162532 97 0 0.0 2.0 0.00 0.00 0.00 46 1014.9
20260906162029 96 0 0.0 2.0 0.00 0.00 0.00 46 1014.8
20260906161551 95 231 0.0 1.0 0.00 0.00 0.00 47 1014.8
20260906161030 95 220 0.0 1.0 0.00 0.00 0.00 48 1014.8
20260906160529 94 0 0.0 0.0 0.00 0.00 0.00 51 1014.9
20260906160052 94 0 0.0 0.0 0.00 0.00 0.00 51 1014.9
20260906155531 95 0 0.0 0.0 0.00 0.00 0.00 50 1014.8
20260906155028 96 0 0.0 0.0 0.00 0.00 0.00 49 1014.9
20260906154601 95 0 0.0 0.0 0.00 0.00 0.00 50 1014.9
20260906154029 95 0 0.0 1.0 0.00 0.00 0.00 49 1014.8
20260906153533 94 171 0.0 1.0 0.00 0.00 0.00 51 1014.7
20260906153052 94 328 0.0 0.0 0.00 0.00 0.00 51 1014.9
20260906152527 93 0 0.0 1.0 0.00 0.00 0.00 53 1014.8
20260906152035 92 0 0.0 1.0 0.00 0.00 0.00 52 1014.7
20260906151551 91 0 0.0 1.0 0.00 0.00 0.00 55 1014.7
20260906151030 91 0 0.0 2.0 0.00 0.00 0.00 55 1014.6
20260906150529 91 93 0.0 2.0 0.00 0.00 0.00 55 1014.6
20260906150049 90 221 0.0 1.0 0.00 0.00 0.00 57 1014.6
20260906145530 90 0 0.0 1.0 0.00 0.00 0.00 56 1014.6
20260906145030 90 0 0.0 0.0 0.00 0.00 0.00 58 1014.6
20260906144555 89 0 0.0 0.0 0.00 0.00 0.00 59 1014.6
20260906144030 89 0 0.0 0.0 0.00 0.00 0.00 57 1014.7
20260906143531 89 0 0.0 0.0 0.00 0.00 0.00 59 1014.5
20260906143053 88 0 0.0 0.0 0.00 0.00 0.00 62 1014.5
20260906142531 88 0 0.0 0.0 0.00 0.00 0.00 61 1014.5
20260906142027 88 0 0.0 0.0 0.00 0.00 0.00 61 1014.6
20260906141548 87 0 0.0 0.0 0.00 0.00 0.00 63 1014.5
20260906141028 86 169 0.0 0.0 0.00 0.00 0.00 66 1014.5
20260906140529 84 0 0.0 0.0 0.00 0.00 0.00 68 1014.5
20260906140048 83 0 0.0 0.0 0.00 0.00 0.00 70 1014.3
20260906135535 82 0 0.0 0.0 0.00 0.00 0.00 71 1014.3
20260906135116 82 0 0.0 0.0 0.00 0.00 0.00 72 1014.2
20260906134553 82 0 0.0 0.0 0.00 0.00 0.00 72 1014.2
20260906134031 81 0 0.0 0.0 0.00 0.00 0.00 72 1014.2
20260906133529 81 0 0.0 0.0 0.00 0.00 0.00 73 1014.3
20260906133052 81 0 0.0 0.0 0.00 0.00 0.00 73 1014.2
20260906132532 80 0 0.0 0.0 0.00 0.00 0.00 74 1014.2
20260906132029 80 0 0.0 0.0 0.00 0.00 0.00 75 1014.2
20260906131550 79 0 0.0 0.0 0.00 0.00 0.00 75 1014.3
20260906131032 79 0 0.0 0.0 0.00 0.00 0.00 75 1014.3
20260906130530 79 0 0.0 0.0 0.00 0.00 0.00 76 1014.4
20260906130057 78 0 0.0 0.0 0.00 0.00 0.00 77 1014.3
20260906125530 77 0 0.0 0.0 0.00 0.00 0.00 79 1014.4
20260906125027 77 0 0.0 0.0 0.00 0.00 0.00 80 1014.2
20260906124555 76 0 0.0 0.0 0.00 0.00 0.00 81 1014.0
20260906124033 76 0 0.0 0.0 0.00 0.00 0.00 81 1014.0
20260906123530 76 0 0.0 0.0 0.00 0.00 0.00 82 1014.0
20260906123050 75 0 0.0 0.0 0.00 0.00 0.00 83 1013.8
20260906122528 75 0 0.0 0.0 0.00 0.00 0.00 83 1013.8
20260906122027 75 0 0.0 0.0 0.00 0.00 0.00 83 1013.7
20260906121554 75 0 0.0 0.0 0.00 0.00 0.00 83 1013.7
20260906121028 75 0 0.0 0.0 0.00 0.00 0.00 82 1013.7
20260906120530 75 0 0.0 0.0 0.00 0.00 0.00 83 1013.6
20260906120110 75 0 0.0 0.0 0.00 0.00 0.00 83 1013.6
20260906115528 75 0 0.0 0.0 0.00 0.00 0.00 84 1013.5
20260906115029 75 0 0.0 0.0 0.00 0.00 0.00 83 1013.5
20260906114551 75 0 0.0 0.0 0.00 0.00 0.00 83 1013.4
20260906114026 75 0 0.0 0.0 0.00 0.00 0.00 83 1013.5
20260906113528 75 0 0.0 0.0 0.00 0.00 0.00 83 1013.3
20260906113054 75 0 0.0 0.0 0.00 0.00 0.00 83 1013.2
20260906112533 75 0 0.0 0.0 0.00 0.00 0.00 82 1013.3
20260906112028 75 0 0.0 0.0 0.00 0.00 0.00 82 1013.2
20260906111608 75 0 0.0 0.0 0.00 0.00 0.00 82 1013.2
20260906111030 75 0 0.0 0.0 0.00 0.00 0.00 82 1013.0
20260906110531 75 0 0.0 0.0 0.00 0.00 0.00 81 1013.0
20260906110050 76 0 0.0 0.0 0.00 0.00 0.00 81 1013.0
20260906105530 76 0 0.0 0.0 0.00 0.00 0.00 81 1013.0
20260906105027 76 0 0.0 0.0 0.00 0.00 0.00 81 1013.1
20260906104552 76 0 0.0 0.0 0.00 0.00 0.00 81 1013.1
20260906104028 76 0 0.0 0.0 0.00 0.00 0.00 81 1013.0
20260906103530 76 0 0.0 0.0 0.00 0.00 0.00 81 1013.0
20260906103048 76 0 0.0 0.0 0.00 0.00 0.00 81 1013.0
20260906102531 76 0 0.0 0.0 0.00 0.00 0.00 81 1013.0
20260906102033 76 0 0.0 0.0 0.00 0.00 0.00 80 1013.0
20260906101558 76 0 0.0 0.0 0.00 0.00 0.00 80 1012.9
20260906101027 76 0 0.0 0.0 0.00 0.00 0.00 79 1013.0
20260906100532 76 0 0.0 0.0 0.00 0.00 0.00 79 1013.0
20260906100051 77 0 0.0 0.0 0.00 0.00 0.00 80 1013.0
20260906095528 77 0 0.0 0.0 0.00 0.00 0.00 80 1013.0
20260906095027 77 0 0.0 0.0 0.00 0.00 0.00 79 1013.1
20260906094552 77 0 0.0 0.0 0.00 0.00 0.00 79 1013.0
20260906094027 77 0 0.0 0.0 0.00 0.00 0.00 79 1012.9
20260906093529 77 0 0.0 0.0 0.00 0.00 0.00 80 1012.9
20260906093050 77 0 0.0 0.0 0.00 0.00 0.00 81 1012.8
20260906092530 77 0 0.0 0.0 0.00 0.00 0.00 80 1012.8
20260906092029 77 0 0.0 0.0 0.00 0.00 0.00 80 1012.9
20260906091544 77 0 0.0 0.0 0.00 0.00 0.00 80 1012.9
20260906091030 77 0 0.0 0.0 0.00 0.00 0.00 81 1012.8
20260906090527 77 0 0.0 0.0 0.00 0.00 0.00 79 1012.8
20260906090057 77 0 0.0 0.0 0.00 0.00 0.00 79 1012.7
20260906085527 77 0 0.0 0.0 0.00 0.00 0.00 79 1012.6
20260906085030 77 0 0.0 0.0 0.00 0.00 0.00 79 1012.6
20260906084553 77 0 0.0 0.0 0.00 0.00 0.00 79 1012.6
20260906084028 77 0 0.0 0.0 0.00 0.00 0.00 79 1012.7
20260906083528 77 0 0.0 0.0 0.00 0.00 0.00 79 1012.5
20260906083101 77 0 0.0 0.0 0.00 0.00 0.00 78 1012.3
20260906082530 78 0 0.0 0.0 0.00 0.00 0.00 79 1012.3
20260906082033 78 0 0.0 0.0 0.00 0.00 0.00 79 1012.4
20260906081558 78 0 0.0 0.0 0.00 0.00 0.00 79 1012.3
20260906081030 78 0 0.0 0.0 0.00 0.00 0.00 79 1012.3
20260906080530 78 0 0.0 0.0 0.00 0.00 0.00 78 1012.4
20260906080104 78 0 0.0 0.0 0.00 0.00 0.00 78 1012.3
20260906075528 78 0 0.0 0.0 0.00 0.00 0.00 77 1012.5
20260906075031 78 0 0.0 0.0 0.00 0.00 0.00 77 1012.4
20260906074550 78 0 0.0 0.0 0.00 0.00 0.00 76 1012.3
20260906074027 78 0 0.0 0.0 0.00 0.00 0.00 77 1012.2
20260906073528 79 0 0.0 0.0 0.00 0.00 0.00 77 1012.1
20260906073125 79 0 0.0 0.0 0.00 0.00 0.00 76 1012.1
20260906072528 79 0 0.0 0.0 0.00 0.00 0.00 76 1012.2
20260906072027 79 0 0.0 0.0 0.00 0.00 0.00 75 1012.4
20260906071601 79 0 0.0 0.0 0.00 0.00 0.00 76 1012.4
20260906071030 79 0 0.0 0.0 0.00 0.00 0.00 76 1012.5
20260906070529 79 0 0.0 0.0 0.00 0.00 0.00 75 1012.5
20260906070050 79 0 0.0 0.0 0.00 0.00 0.00 75 1012.5
20260906065528 79 0 0.0 0.0 0.00 0.00 0.00 75 1012.5
20260906065028 79 0 0.0 0.0 0.00 0.00 0.00 74 1012.4
20260906064549 79 0 0.0 0.0 0.00 0.00 0.00 74 1012.4
20260906064028 80 0 0.0 0.0 0.00 0.00 0.00 73 1012.4
20260906063531 80 0 0.0 0.0 0.00 0.00 0.00 74 1012.4
20260906063056 80 0 0.0 0.0 0.00 0.00 0.00 74 1012.4
20260906062527 80 0 0.0 0.0 0.00 0.00 0.00 73 1012.5
20260906062028 80 0 0.0 0.0 0.00 0.00 0.00 73 1012.5
20260906061556 80 0 0.0 0.0 0.00 0.00 0.00 72 1012.5
20260906061027 81 0 0.0 0.0 0.00 0.00 0.00 72 1012.5
20260906060530 81 0 0.0 0.0 0.00 0.00 0.00 71 1012.5
20260906060048 81 0 0.0 0.0 0.00 0.00 0.00 71 1012.4
20260906055532 81 0 0.0 0.0 0.00 0.00 0.00 71 1012.5
20260906055030 81 0 0.0 0.0 0.00 0.00 0.00 72 1012.5
20260906054555 81 0 0.0 0.0 0.00 0.00 0.00 71 1012.5
20260906054033 81 0 0.0 0.0 0.00 0.00 0.00 71 1012.5
20260906053527 81 0 0.0 0.0 0.00 0.00 0.00 71 1012.3
20260906053054 82 0 0.0 0.0 0.00 0.00 0.00 71 1012.3
20260906052530 82 0 0.0 0.0 0.00 0.00 0.00 70 1012.2
20260906052030 82 0 0.0 0.0 0.00 0.00 0.00 70 1012.2
20260906051555 82 0 0.0 0.0 0.00 0.00 0.00 70 1012.1
20260906051030 82 0 0.0 0.0 0.00 0.00 0.00 69 1012.2
20260906050531 82 0 0.0 0.0 0.00 0.00 0.00 69 1012.3
20260906050057 82 0 0.0 0.0 0.00 0.00 0.00 68 1012.3
20260906045529 82 0 0.0 0.0 0.00 0.00 0.00 68 1012.2
20260906045030 82 0 0.0 0.0 0.00 0.00 0.00 68 1012.3
20260906044553 82 0 0.0 2.0 0.00 0.00 0.00 68 1012.2
20260906044030 82 0 0.0 2.0 0.00 0.00 0.00 68 1012.3
20260906043527 82 0 0.0 0.0 0.00 0.00 0.00 66 1012.2
20260906043050 83 0 0.0 0.0 0.00 0.00 0.00 66 1012.1
20260906042530 83 0 0.0 0.0 0.00 0.00 0.00 65 1012.2
20260906042028 83 0 0.0 0.0 0.00 0.00 0.00 64 1012.2
20260906041553 83 0 0.0 0.0 0.00 0.00 0.00 65 1012.2
20260906041028 84 0 0.0 0.0 0.00 0.00 0.00 65 1012.1
20260906040528 84 0 0.0 0.0 0.00 0.00 0.00 65 1012.1
20260906040054 84 0 0.0 0.0 0.00 0.00 0.00 65 1012.1
20260906035529 84 0 0.0 0.0 0.00 0.00 0.00 65 1012.1
20260906035029 84 0 0.0 0.0 0.00 0.00 0.00 65 1012.1
20260906034554 84 0 0.0 0.0 0.00 0.00 0.00 65 1012.1
20260906034029 84 0 0.0 0.0 0.00 0.00 0.00 65 1012.0
20260906033527 85 0 0.0 0.0 0.00 0.00 0.00 64 1011.9
20260906033049 85 0 0.0 0.0 0.00 0.00 0.00 64 1011.9
20260906032527 85 0 0.0 0.0 0.00 0.00 0.00 63 1011.8
20260906032028 85 0 0.0 0.0 0.00 0.00 0.00 63 1011.9
20260906031552 85 0 0.0 0.0 0.00 0.00 0.00 62 1012.0
20260906031029 85 0 0.0 0.0 0.00 0.00 0.00 61 1012.1
20260906030529 86 0 0.0 0.0 0.00 0.00 0.00 61 1012.1
20260906030050 86 0 0.0 0.0 0.00 0.00 0.00 62 1012.1
20260906025530 85 0 0.0 0.0 0.00 0.00 0.00 62 1012.1
20260906025028 85 0 0.0 0.0 0.00 0.00 0.00 63 1011.9
20260906024601 86 0 0.0 0.0 0.00 0.00 0.00 63 1011.9
20260906024029 86 0 0.0 0.0 0.00 0.00 0.00 62 1011.7
20260906023528 86 0 0.0 0.0 0.00 0.00 0.00 62 1011.8
20260906023053 86 0 0.0 0.0 0.00 0.00 0.00 61 1011.7
20260906022526 86 0 0.0 0.0 0.00 0.00 0.00 61 1011.5
20260906022033 86 0 0.0 0.0 0.00 0.00 0.00 61 1011.5
20260906021551 87 0 0.0 0.0 0.00 0.00 0.00 60 1011.4
20260906021031 87 0 0.0 0.0 0.00 0.00 0.00 59 1011.3
20260906020528 87 0 0.0 0.0 0.00 0.00 0.00 58 1011.4
20260906020051 87 0 0.0 0.0 0.00 0.00 0.00 58 1011.3
20260906015526 87 0 0.0 0.0 0.00 0.00 0.00 57 1011.3
20260906015027 88 0 0.0 0.0 0.00 0.00 0.00 57 1011.3
20260906014600 88 0 0.0 0.0 0.00 0.00 0.00 56 1011.2
20260906014030 88 0 0.0 0.0 0.00 0.00 0.00 55 1011.1
20260906013530 89 0 0.0 0.0 0.00 0.00 0.00 56 1011.2
20260906013051 89 0 0.0 0.0 0.00 0.00 0.00 55 1011.1
20260906012526 90 0 0.0 0.0 0.00 0.00 0.00 54 1011.0
20260906012029 90 0 0.0 0.0 0.00 0.00 0.00 52 1010.9
20260906011549 91 0 0.0 0.0 0.00 0.00 0.00 51 1010.9
20260906011030 91 0 0.0 0.0 0.00 0.00 0.00 51 1011.0
20260906010530 92 0 0.0 0.0 0.00 0.00 0.00 51 1010.9
20260906010054 93 0 0.0 0.0 0.00 0.00 0.00 51 1010.8
20260906005529 93 0 0.0 0.0 0.00 0.00 0.00 48 1010.9
20260906005033 94 0 0.0 0.0 0.00 0.00 0.00 46 1010.8
20260906004554 94 0 0.0 0.0 0.00 0.00 0.00 45 1010.7
20260906004029 95 0 0.0 0.0 0.00 0.00 0.00 45 1010.8
20260906003530 96 0 0.0 0.0 0.00 0.00 0.00 42 1010.7
20260906003109 96 0 0.0 0.0 0.00 0.00 0.00 42 1010.8
20260906002528 97 0 0.0 1.0 0.00 0.00 0.00 41 1010.7
20260906002029 97 0 0.0 1.0 0.00 0.00 0.00 39 1010.8
20260906001549 97 139 0.0 1.0 0.00 0.00 0.00 39 1010.7
20260906001028 98 0 0.0 1.0 0.00 0.00 0.00 38 1010.7
20260906000528 98 75 0.0 1.0 0.00 0.00 0.00 38 1010.8
20260906000059 98 140 0.0 1.0 0.00 0.00 0.00 38 1010.8
20260905235529 98 0 0.0 1.0 0.00 0.00 0.00 38 1010.7
20260905235027 98 0 0.0 1.0 0.00 0.00 0.00 37 1010.6
20260905234606 99 136 0.0 1.0 0.00 0.00 0.00 37 1010.6
20260905234033 99 0 0.0 2.0 0.00 0.00 0.00 37 1010.6
20260905233529 99 90 0.0 3.0 0.00 0.00 0.00 37 1010.4
20260905233050 99 127 0.0 3.0 0.00 0.00 0.00 38 1010.4
20260905232531 99 0 0.0 3.0 0.00 0.00 0.00 37 1010.4
20260905232027 99 86 0.0 2.0 0.00 0.00 0.00 37 1010.4
20260905231549 99 191 0.0 4.0 0.00 0.00 0.00 36 1010.4
20260905231027 100 0 0.0 4.0 0.00 0.00 0.00 37 1010.5
20260905230528 100 0 0.0 4.0 0.00 0.00 0.00 36 1010.4
20260905230052 100 0 0.0 4.0 0.00 0.00 0.00 37 1010.3
20260905225529 100 0 0.0 4.0 0.00 0.00 0.00 36 1010.3
20260905225028 101 232 0.0 5.0 0.00 0.00 0.00 36 1010.4
20260905224550 101 129 2.0 5.0 0.00 0.00 0.00 35 1010.5
20260905224029 101 161 1.0 4.0 0.00 0.00 0.00 36 1010.4
20260905223529 101 153 0.0 2.0 0.00 0.00 0.00 35 1010.5
20260905223049 101 0 0.0 6.0 0.00 0.00 0.00 36 1010.6
20260905222532 101 0 0.0 6.0 0.00 0.00 0.00 36 1010.5
20260905222027 102 51 1.0 6.0 0.00 0.00 0.00 35 1010.6
20260905221555 103 0 0.0 2.0 0.00 0.00 0.00 34 1010.6
20260905221029 103 173 0.0 2.0 0.00 0.00 0.00 34 1010.7
20260905220526 104 0 0.0 5.0 0.00 0.00 0.00 35 1010.7
20260905220050 103 0 1.0 5.0 0.00 0.00 0.00 35 1010.9
20260905215529 102 257 0.0 5.0 0.00 0.00 0.00 36 1010.9
20260905215030 101 0 1.0 5.0 0.00 0.00 0.00 36 1010.9
20260905214548 102 0 0.0 5.0 0.00 0.00 0.00 37 1011.0
20260905214027 101 118 0.0 5.0 0.00 0.00 0.00 36 1011.0
20260905213528 101 69 1.0 6.0 0.00 0.00 0.00 37 1011.1
20260905213057 101 339 1.0 6.0 0.00 0.00 0.00 36 1011.0
20260905212531 101 84 2.0 6.0 0.00 0.00 0.00 37 1011.2
20260905212028 102 84 1.0 5.0 0.00 0.00 0.00 37 1011.1
20260905211551 101 84 0.0 6.0 0.00 0.00 0.00 36 1011.3
20260905211030 101 57 2.0 6.0 0.00 0.00 0.00 36 1011.4
20260905210532 101 67 1.0 11.0 0.00 0.00 0.00 36 1011.4
20260905210048 101 118 3.0 11.0 0.00 0.00 0.00 36 1011.5
20260905205528 102 90 1.0 4.0 0.00 0.00 0.00 37 1011.6
20260905205028 102 70 0.0 4.0 0.00 0.00 0.00 35 1011.5
20260905204556 102 215 1.0 4.0 0.00 0.00 0.00 35 1011.7
20260905204027 102 185 0.0 4.0 0.00 0.00 0.00 37 1011.8
20260905203531 101 132 1.0 6.0 0.00 0.00 0.00 37 1011.8
20260905203057 101 70 2.0 7.0 0.00 0.00 0.00 36 1011.9
20260905202527 101 74 1.0 7.0 0.00 0.00 0.00 37 1012.0
20260905202029 101 68 2.0 7.0 0.00 0.00 0.00 37 1012.1
20260905201551 101 353 1.0 4.0 0.00 0.00 0.00 37 1012.3
20260905201028 101 48 1.0 7.0 0.00 0.00 0.00 37 1012.3
20260905200531 101 72 1.0 7.0 0.00 0.00 0.00 39 1012.5
20260905200056 101 83 3.0 9.0 0.00 0.00 0.00 37 1012.5
20260905195528 102 91 2.0 9.0 0.00 0.00 0.00 37 1012.7
20260905195028 102 330 1.0 6.0 0.00 0.00 0.00 37 1012.7
20260905194558 102 236 1.0 6.0 0.00 0.00 0.00 37 1012.7
20260905194028 103 33 2.0 6.0 0.00 0.00 0.00 34 1012.8